| time (UTC) | temp F | wind direction | speed MPH | gust MPH | rain 1hr in | rain 24hr in | rain mn in | humidity % | barometer mb |
| 20260503041508 | 39 | 295 | 1.0 | 4.0 | 0.00 | 0.01 | 0.01 | 88 | 1025.2 |
| 20260503040005 | 40 | 274 | 1.0 | 3.0 | 0.00 | 0.01 | 0.01 | 88 | 1025.2 |
| 20260503034504 | 41 | 106 | 0.0 | 3.0 | 0.00 | 0.01 | 0.01 | 88 | 1025.2 |
| 20260503033004 | 42 | 106 | 0.0 | 1.0 | 0.00 | 0.01 | 0.01 | 87 | 1025.0 |
| 20260503031504 | 42 | 106 | 0.0 | 0.0 | 0.00 | 0.01 | 0.01 | 87 | 1024.8 |
| 20260503030005 | 43 | 106 | 0.0 | 0.0 | 0.00 | 0.01 | 0.01 | 87 | 1024.6 |
| 20260503024503 | 43 | 106 | 0.0 | 2.0 | 0.00 | 0.01 | 0.01 | 86 | 1024.7 |
| 20260503023003 | 43 | 106 | 0.0 | 0.0 | 0.00 | 0.01 | 0.01 | 86 | 1024.7 |
| 20260503021506 | 43 | 106 | 0.0 | 0.0 | 0.00 | 0.01 | 0.01 | 85 | 1024.5 |
| 20260503020003 | 44 | 106 | 0.0 | 0.0 | 0.00 | 0.02 | 0.01 | 84 | 1024.7 |
| 20260503014503 | 44 | 106 | 0.0 | 2.0 | 0.00 | 0.02 | 0.01 | 82 | 1024.4 |
| 20260503013007 | 44 | 106 | 0.0 | 6.0 | 0.00 | 0.02 | 0.01 | 81 | 1024.3 |
| 20260503011504 | 44 | 123 | 3.0 | 5.0 | 0.00 | 0.02 | 0.01 | 81 | 1024.2 |
| 20260503010002 | 44 | 111 | 5.0 | 11.0 | 0.00 | 0.02 | 0.01 | 79 | 1024.1 |
| 20260503004502 | 45 | 70 | 3.0 | 5.0 | 0.00 | 0.02 | 0.01 | 78 | 1024.3 |
| 20260503003002 | 45 | 51 | 4.0 | 9.0 | 0.00 | 0.02 | 0.01 | 77 | 1024.2 |
| 20260503001503 | 46 | 39 | 3.0 | 7.0 | 0.00 | 0.02 | 0.01 | 76 | 1024.3 |
| 20260503000006 | 46 | 78 | 2.0 | 7.0 | 0.00 | 0.02 | 0.01 | 76 | 1024.2 |
| 20260502234506 | 46 | 86 | 4.0 | 10.0 | 0.00 | 0.02 | 0.01 | 75 | 1024.1 |
| 20260502233002 | 46 | 76 | 2.0 | 12.0 | 0.00 | 0.02 | 0.01 | 76 | 1023.9 |
| 20260502231502 | 47 | 91 | 3.0 | 9.0 | 0.00 | 0.02 | 0.01 | 75 | 1024.1 |
| 20260502230004 | 47 | 71 | 4.0 | 11.0 | 0.01 | 0.02 | 0.01 | 74 | 1023.9 |
| 20260502224502 | 48 | 47 | 6.0 | 11.0 | 0.01 | 0.02 | 0.01 | 75 | 1023.7 |
| 20260502223002 | 46 | 75 | 4.0 | 12.0 | 0.01 | 0.02 | 0.01 | 78 | 1023.8 |
| 20260502221502 | 46 | 81 | 5.0 | 12.0 | 0.01 | 0.02 | 0.01 | 79 | 1023.8 |
| 20260502220005 | 47 | 88 | 2.0 | 9.0 | 0.00 | 0.01 | 0.00 | 75 | 1023.9 |
| 20260502214502 | 50 | 84 | 3.0 | 9.0 | 0.00 | 0.01 | 0.00 | 67 | 1024.1 |
| 20260502213003 | 49 | 121 | 5.0 | 14.0 | 0.00 | 0.01 | 0.00 | 66 | 1024.3 |
| 20260502211510 | 50 | 106 | 8.0 | 17.0 | 0.00 | 0.01 | 0.00 | 65 | 1024.7 |
| 20260502210007 | 50 | 100 | 6.0 | 12.0 | 0.00 | 0.01 | 0.00 | 64 | 1025.0 |
| 20260502204502 | 50 | 117 | 7.0 | 13.0 | 0.00 | 0.02 | 0.00 | 62 | 1025.2 |
| 20260502203002 | 51 | 80 | 5.0 | 12.0 | 0.00 | 0.02 | 0.00 | 64 | 1025.3 |
| 20260502201502 | 50 | 165 | 4.0 | 12.0 | 0.00 | 0.02 | 0.00 | 64 | 1025.4 |
| 20260502200003 | 49 | 123 | 3.0 | 9.0 | 0.00 | 0.03 | 0.00 | 65 | 1025.6 |
| 20260502194502 | 48 | 207 | 3.0 | 8.0 | 0.00 | 0.03 | 0.00 | 65 | 1025.8 |
| 20260502193002 | 49 | 107 | 1.0 | 9.0 | 0.00 | 0.03 | 0.00 | 66 | 1025.9 |
| 20260502191502 | 48 | 355 | 2.0 | 6.0 | 0.00 | 0.03 | 0.00 | 66 | 1026.1 |
| 20260502190004 | 48 | 170 | 1.0 | 3.0 | 0.00 | 0.03 | 0.00 | 66 | 1026.3 |
| 20260502184503 | 48 | 102 | 2.0 | 4.0 | 0.00 | 0.06 | 0.00 | 68 | 1026.6 |
| 20260502183005 | 46 | 125 | 3.0 | 10.0 | 0.00 | 0.06 | 0.00 | 68 | 1026.7 |
| 20260502181504 | 48 | 162 | 3.0 | 7.0 | 0.00 | 0.06 | 0.00 | 67 | 1027.1 |
| 20260502163002 | 40 | 170 | 1.0 | 6.0 | 0.00 | 0.07 | 0.00 | 82 | 1027.7 |
| 20260502161502 | 39 | 123 | 4.0 | 7.0 | 0.00 | 0.07 | 0.00 | 83 | 1027.7 |
| 20260502151501 | 38 | 107 | 3.0 | 7.0 | 0.00 | 0.09 | 0.00 | 85 | 1027.3 |
| 20260502123002 | 36 | 86 | 1.0 | 2.0 | 0.00 | 0.34 | 0.00 | 92 | 1025.6 |
| 20260502121503 | 35 | 86 | 0.0 | 2.0 | 0.00 | 0.34 | 0.00 | 92 | 1025.4 |
| 20260502114503 | 35 | 86 | 0.0 | 0.0 | 0.00 | 0.55 | 0.00 | 92 | 1024.8 |
| 20260502113003 | 35 | 86 | 0.0 | 0.0 | 0.00 | 0.55 | 0.00 | 92 | 1024.8 |
| 20260502111503 | 35 | 86 | 0.0 | 0.0 | 0.00 | 0.55 | 0.00 | 92 | 1024.8 |
| 20260502110004 | 35 | 86 | 0.0 | 0.0 | 0.00 | 0.55 | 0.00 | 92 | 1025.0 |
| 20260502104505 | 35 | 86 | 0.0 | 0.0 | 0.00 | 1.44 | 0.00 | 92 | 1025.0 |
| 20260502103003 | 35 | 86 | 1.0 | 2.0 | 0.00 | 1.44 | 0.00 | 92 | 1024.8 |
| 20260502101503 | 35 | 86 | 0.0 | 2.0 | 0.00 | 1.44 | 0.00 | 92 | 1024.7 |
| 20260502091509 | 36 | 46 | 0.0 | 3.0 | 0.00 | 1.44 | 0.00 | 92 | 1024.4 |
| 20260502070007 | 36 | 93 | 4.0 | 7.0 | 0.00 | 1.44 | 0.00 | 92 | 1023.9 |
| 20260502064510 | 36 | 65 | 1.0 | 3.0 | 0.00 | 1.44 | 0.00 | 91 | 1024.0 |
| 20260502063005 | 36 | 65 | 1.0 | 3.0 | 0.00 | 1.44 | 0.00 | 92 | 1024.0 |
| 20260502061504 | 36 | 15 | 2.0 | 4.0 | 0.00 | 1.44 | 0.00 | 92 | 1024.2 |
| 20260502060007 | 36 | 34 | 2.0 | 4.0 | 0.00 | 1.44 | 0.00 | 91 | 1024.2 |
| 20260502054512 | 36 | 74 | 1.0 | 2.0 | 0.00 | 1.44 | 1.44 | 91 | 1024.1 |
| 20260502053004 | 36 | 74 | 1.0 | 5.0 | 0.00 | 1.44 | 1.44 | 91 | 1023.9 |
| 20260502051508 | 36 | 82 | 3.0 | 5.0 | 0.00 | 1.44 | 1.44 | 91 | 1023.9 |
| 20260502050005 | 36 | 76 | 2.0 | 3.0 | 0.00 | 1.44 | 1.44 | 91 | 1023.9 |
| 20260502044504 | 36 | 67 | 2.0 | 5.0 | 0.00 | 1.44 | 1.44 | 91 | 1023.8 |
| 20260502043004 | 36 | 75 | 2.0 | 4.0 | 0.00 | 1.44 | 1.44 | 91 | 1023.5 |